Location: Isle of Man Observatory
(54.1776°N, 4.6264°W)
Time: 15:03:31
(UTC+02:00)

HTV-X1 - Visible Passes

Search period start: 08 May 2026 00:00
Search period end: 18 May 2026 00:00
Orbit: 373 x 383 km, 51.6° (Epoch: 8 May)

Date Brightness Start Highest point End Pass type
(mag) Time Alt. Az. Time Alt. Az. Time Alt. Az.
8 May ? 02:55:24 14° ESE 02:55:24 14° ESE 02:55:55 10° ESE visible
8 May ? 04:27:34 26° SW 04:28:30 32° SSW 04:31:18 10° SE visible
9 May ? 03:30:25 13° ESE 03:30:25 13° ESE 03:30:50 10° ESE visible
9 May ? 05:02:39 16° SW 05:03:15 17° SSW 05:05:19 10° S visible
9 May ? 23:14:16 10° S 23:16:09 15° SSE 23:17:38 12° ESE visible
10 May ? 00:48:34 10° WSW 00:49:55 22° SW 00:49:55 22° SW visible
10 May ? 23:48:05 10° SW 23:50:49 29° SSE 23:53:07 13° E visible
11 May ? 01:23:22 10° WSW 01:25:17 32° WSW 01:25:17 32° WSW visible
12 May ? 00:22:40 10° WSW 00:25:39 46° S 00:27:23 21° ESE visible
12 May ? 01:58:19 10° W 01:59:30 20° WSW 01:59:30 20° WSW visible
12 May ? 23:22:02 10° SW 23:24:53 36° SSE 23:27:46 10° E visible
13 May ? 00:57:30 10° W 01:00:31 53° S 01:01:06 44° SE visible
13 May ? 23:56:41 10° WSW 23:59:42 51° S 00:02:30 12° E visible
14 May ? 01:32:25 10° W 01:34:35 33° SW 01:34:35 33° SW visible
15 May ? 00:31:31 10° W 00:34:32 50° S 00:35:52 27° SE visible
15 May ? 02:07:29 10° W 02:07:57 13° WSW 02:07:57 13° WSW visible
15 May ? 23:30:39 10° WSW 23:33:40 53° S 23:36:42 10° ESE visible
16 May ? 01:06:25 10° W 01:09:09 34° SSW 01:09:09 34° SSW visible
17 May ? 00:05:28 10° W 00:08:27 45° S 00:10:18 19° SE visible
17 May ? 01:41:36 10° WSW 01:42:23 14° WSW 01:42:23 14° WSW visible
17 May ? 23:04:31 10° W 23:07:32 52° S 23:10:33 10° ESE visible
